Regional Weather Roundup
Issued by NWS

Home | Current Version | Previous Version | Text Only | Print | Product List | Glossary On
Versions: 1 2 3 4 5 6 7 8 9 10 11 12 13 14 15 16 17 18 19 20 21 22 23 24 25 26 27 28 29 30 31 32 33 34 35 36 37 38 39 40 41 42 43 44 45 46 47 48 49 50
792
ASUS43 KMKX 192310
RWRWI

WISCONSIN REGIONAL WEATHER ROUNDUP
NATIONAL WEATHER SERVICE MILWAUKEE/SULLIVAN WI
500 PM CST SUN NOV 19 2017

NOTE: "FAIR" INDICATES FEW OR NO CLOUDS BELOW 12,000 FEET WITH NO
SIGNIFICANT WEATHER AND/OR OBSTRUCTIONS TO VISIBILITY.

WIZ001-002-006>008-014>016-023>028-200000-
NORTHWEST WISCONSIN

CITY           SKY/WX    TMP DP  RH WIND       PRES   REMARKS
SUPERIOR ARPT  CLOUDY    26  15  63 CALM      29.88S
ASHLAND        CLOUDY    24  16  71 CALM      29.88F
HAYWARD        CLOUDY    28  15  58 S5        29.87S WCI  23
SIREN          CLEAR     30  17  57 S3        29.88S
CUMBERLAND     CLEAR     28  19  69 SW8       29.88S WCI  20
RICE LAKE      CLEAR     30  18  60 S5        29.90S WCI  25
CHETEK         CLEAR     29  17  61 CALM      29.90S
LADYSMITH      CLEAR     28  17  61 S5        29.90F WCI  23
EAU CLAIRE     CLEAR     28  16  60 S6        29.91F WCI  22
MENOMONIE      CLEAR     28  18  66 SE5       29.91F WCI  22
NEW RICHMOND   CLEAR     29  19  66 SE3       29.89F
OSCEOLA        CLEAR     29  20  68 SE3       29.91F
$$

WIZ003>005-009-010-017-018-200000-
NORTH CENTRAL WISCONSIN

CITY           SKY/WX    TMP DP  RH WIND       PRES   REMARKS
MANITOWISH WTR CLOUDY    19  18  93 SW3       29.84F
ARBOR VITAE    MOCLDY    23  17  79 CALM      29.84F
WOODRUFF       MOCLDY    23  17  79 CALM      29.84F
RHINELANDER    CLOUDY   N/A N/A N/A W3        29.87S
EAGLE RIVER    LGT SNOW  21  17  83 W8        29.84F WCI  12
LAND O LAKES   LGT SNOW  20  17  88 CALM      29.86S
PHILLIPS       CLOUDY    26  14  61 CALM      29.86F
TOMAHAWK       CLOUDY    25  12  57 CALM      29.89S
MEDFORD        MOCLDY    26  14  62 SW6       29.88F WCI  19
MERRILL        CLOUDY    28  13  54 W3        29.89F
$$

WIZ029-030-035-036-043>047-200000-
CENTRAL WISCONSIN

CITY           SKY/WX    TMP DP  RH WIND       PRES   REMARKS
WAUSAU         CLOUDY    28  15  58 W6        29.90S WCI  22
MOSINEE        MOCLDY    27  16  63 W9        29.92S WCI  17
MARSHFIELD     PTCLDY    27  15  61 W8        29.91S WCI  19
STEVENS POINT  PTCLDY    28  13  54 SW7       29.94R WCI  20
WAUPACA        CLEAR     31  15  51 SW6       29.95S WCI  25
WAUTOMA        CLEAR     28  15  58 SW5       29.97S WCI  23
WISC RAPIDS    CLEAR     29  15  56 SW8       29.95S WCI  21
CAMP DOUGLAS   CLEAR    N/A N/A N/A S5        29.97F
$$

WIZ011>013-019>022-031-037>040-048>050-200000-
NORTHEAST WISCONSIN

CITY           SKY/WX    TMP DP  RH WIND       PRES   REMARKS
ANTIGO         CLOUDY    26  11  54 W7        29.88S WCI  18
SHAWANO        PTCLDY    31  11  44 SW3       29.93R
OCONTO         PTCLDY    27  10  49 W6        29.93S WCI  21
STURGEON BAY   CLOUDY    29  13  51 W10       29.92F WCI  20
GREEN BAY      CLOUDY    30  15  53 W8        29.95S WCI  22
MANITOWOC      CLOUDY    30  15  53 W8        29.96S WCI  22
APPLETON       MOCLDY    28   7  40 W8        29.93F WCI  20
CLINTONVILLE   CLOUDY    30  10  43 W7        29.94S WCI  23
OSHKOSH        PTCLDY    29  13  51 SW3       29.96S
$$

WIZ032>034-041-042-053>061-200000-
SOUTHWEST WISCONSIN

CITY           SKY/WX    TMP DP  RH WIND       PRES   REMARKS
LA CROSSE      CLEAR     36  21  54 S8        29.96F WCI  30
SPARTA         CLEAR     32  18  57 S3        29.97F
VIROQUA        CLEAR     31  22  68 SW9       29.96F WCI  23
BOSCOBEL       CLEAR     32  18  56 SW7       30.02F WCI  26
PRAIRIE DU CHI CLEAR     34  18  52 CALM      30.01F
PLATTEVILLE    CLEAR     30  21  69 S6        30.02F WCI  24
$$

WIZ056-057-062-063-064-067-068-200000-
SOUTH CENTRAL WISCONSIN

CITY           SKY/WX    TMP DP  RH WIND       PRES   REMARKS
REEDSBURG      CLEAR     30  16  56 SW5       29.98S WCI  25
BARABOO/DELLS  CLEAR     29  16  60 SW6       29.97S WCI  22
LONE ROCK      CLEAR     31  19  61 SW7       30.01S WCI  24
MINERAL POINT  CLEAR     32  21  64 SW7       30.00S WCI  26
MADISON        PTCLDY    31  16  54 W3        30.00F
MIDDLETON      CLEAR     32  18  56 SW10      30.00S WCI  24
WATERTOWN      CLEAR     29  17  60 SW7       29.99S WCI  22
MONROE         CLEAR     30  19  64 SW13      30.02S WCI  20
JANESVILLE     CLEAR     32  19  59 W12       30.02F WCI  23
$$

WIZ051-052-058>065-066-070>072-200000-
SOUTHEAST WISCONSIN

CITY           SKY/WX    TMP DP  RH WIND       PRES   REMARKS
MILWAUKEE      PTCLDY    32  13  45 W7        30.01S WCI  26
WAUKESHA       CLEAR     28  12  50 W12       30.00F WCI  18
MILWAUKEE/TIMM CLEAR     28  10  47 W8        30.01S WCI  20
RACINE         PTCLDY    31  15  52 W7        30.03S WCI  24
BURLINGTON     PTCLDY    31  23  71 W5        30.01F WCI  26
KENOSHA        CLOUDY    31  16  54 W9        30.02S WCI  23
FOND DU LAC    PTCLDY    28  12  51 SW3       29.97S
SHEBOYGAN      CLOUDY    29  15  56 W8        29.97S WCI  21
WEST BEND      PTCLDY    28  12  50 SW3       29.97S
JUNEAU         MOCLDY    27  16  63 SW6       29.99S WCI  21
$$

LSZ147-162-200000-
LAKE SUPERIOR

STATION/POSITION TIME  TEMP    WIND        PRES    WAVE
                       AIR SEA DIR/SP/G            HT/PER
                 (UTC) (F)     (DEG/KT/KT) (MB)    (FT/S)
DEVILS ISLAND    2300   27     220/ 12/ 17 1012.2F
SAXON HARBOR     2240   25     190/  4/  6 1011.9F
$$

LMZ867-665-643>646-200000-
LAKE MICHIGAN

STATION/POSITION TIME  TEMP    WIND        PRES    WAVE
                       AIR SEA DIR/SP/G            HT/PER
                 (UTC) (F)     (DEG/KT/KT) (MB)    (FT/S)
N MID LAKE BUOY  2250   29 48  260/ 16/ 23 1013.5F   2/ 4
NORTHPORT PIER   2240   29     280/  4/  8 1012.5F
KEWAUNEE LAKESHO 2242   30     260/  8/ 10 1013.2S
SHEBOYGAN LAKESH 2300   31     250/  9/ 10 1015.5S
PORT WASHINGTON  2240   31     270/  6/  8 1016.6S
MILWAUKEE LAKESH 2250   32     250/ 10/ 14   N/A
S MID LAKE BUOY  2150   34 49  310/ 16/ 19 1016.7R   4/ 7
KENOSHA   LAKESH 2300   33     270/  9/ 13 1016.9
$$

TC  - TEMPERATURE IN CELSIUS
VSB - VISIBILITY IN STATUTE MILES
WCI - WIND CHILL INDEX
HX  - HEAT INDEX





USA.gov is the U.S. government's official web portal to all federal, state and local government web resources and services.